Weather History for KORC - November, 2011

Change the Weather History Date:

Tuesday, November 15, 2011

  Actual Average Record
Temperature  
Mean Temperature 36 °F -  
Max Temperature 50 °F 43 °F 71 °F (2001)
Min Temperature 21 °F 26 °F 10 °F (2000)
Degree Days  
Heating Degree Days 30    
Moisture  
Dew Point 16 °F    
Average Humidity 43    
Maximum Humidity 64    
Minimum Humidity 22    
Precipitation  
Precipitation 0.03 in - - ()
Sea Level Pressure  
Sea Level Pressure 29.77 in    
Wind  
Wind Speed 10 mph (WNW)    
Max Wind Speed 26 mph    
Max Gust Speed 34 mph    
Visibility 10 miles    
Events      
Averages and records for this station are not official NWS values.
T = Trace of Precipitation, MM = Missing Value Source: NWS Daily Summary

Daily Weather History Graph

Daily Weather History Graph

Search for Another Location

Airport or City:

Trip Planner

Search our weather history database for the weather conditions in past years. The results will help you decide how hot, cold, wet, or windy it might be!

Date:

Astronomy

Nov. 15, 2011 Rise Set
Actual Time 7:16 AM CST 5:00 PM CST
Civil Twilight 6:45 AM CST 5:31 PM CST
Nautical Twilight 6:11 AM CST 6:05 PM CST
Astronomical Twilight 5:37 AM CST 6:39 PM CST
Moon 9:10 PM CST (11/15) 11:17 AM CST (11/15)
Length of Visible Light 10h 45m
Length of Day
9h 44m
Waning Gibbous, 79% of the Moon is Illuminated
Nov 15
Waning Gibbous
Nov 18
Last Quarter
Nov 25
New
Dec 2
First Quarter
Dec 10
Full

Hourly Weather History & Observations

Time (CST) Temp. Windchill Dew Point Humidity Pressure Visibility Wind Dir Wind Speed Gust Speed Precip Events Conditions
12:15 AM 44.6 °F 43.1 °F 15.8 °F 31% 29.55 in 10.0 mi ESE 3.5 mph - N/A   Mostly Cloudy
12:35 AM 46.4 °F 42.9 °F 15.8 °F 29% 29.54 in 10.0 mi SSE 6.9 mph - N/A   Scattered Clouds
12:55 AM 44.6 °F 39.7 °F 17.6 °F 34% 29.53 in 10.0 mi South 9.2 mph - N/A   Clear
1:15 AM 44.6 °F 40.2 °F 17.6 °F 34% 29.53 in 10.0 mi South 8.1 mph - N/A   Clear
1:35 AM 46.4 °F 42.9 °F 17.6 °F 32% 29.52 in 10.0 mi South 6.9 mph - N/A   Clear
1:55 AM 41.0 °F 39.0 °F 17.6 °F 39% 29.53 in 10.0 mi South 3.5 mph - N/A   Clear
2:35 AM 39.2 °F - 17.6 °F 42% 29.53 in 10.0 mi Calm Calm - N/A   Clear
3:15 AM 39.2 °F 37.0 °F 19.4 °F 45% 29.54 in 10.0 mi NNW 3.5 mph - N/A   Clear
3:35 AM 39.2 °F - 19.4 °F 45% 29.54 in 10.0 mi Calm Calm - N/A   Clear
3:55 AM 35.6 °F - 19.4 °F 52% 29.54 in 10.0 mi Calm Calm - N/A   Clear
4:15 AM 32.0 °F - 17.6 °F 55% 29.54 in 10.0 mi Calm Calm - N/A   Clear
4:35 AM 33.8 °F - 19.4 °F 56% 29.55 in 10.0 mi Calm Calm - N/A   Clear
4:55 AM 30.2 °F 22.6 °F 17.6 °F 60% 29.58 in 10.0 mi WNW 8.1 mph - N/A   Clear
5:15 AM 28.4 °F 21.2 °F 17.6 °F 64% 29.59 in 10.0 mi West 6.9 mph - N/A   Clear
5:55 AM 28.4 °F 23.3 °F 17.6 °F 64% 29.60 in 10.0 mi West 4.6 mph - N/A   Clear
7:15 AM 30.2 °F 26.7 °F 17.6 °F 60% 29.65 in 10.0 mi WNW 3.5 mph - N/A   Clear
7:35 AM 30.2 °F 21.9 °F 19.4 °F 64% 29.67 in 10.0 mi West 9.2 mph - N/A   Clear
7:55 AM 33.8 °F 26.4 °F 19.4 °F 56% 29.68 in 10.0 mi WNW 9.2 mph - N/A   Clear
8:15 AM 35.6 °F 27.1 °F 21.2 °F 56% 29.69 in 10.0 mi WNW 12.7 mph - N/A   Clear
8:35 AM 37.4 °F 28.9 °F 21.2 °F 52% 29.69 in 10.0 mi WNW 13.8 mph - N/A   Clear
9:15 AM 39.2 °F 31.2 °F 21.2 °F 49% 29.71 in 10.0 mi NW 13.8 mph 19.6 mph N/A   Clear
9:35 AM 41.0 °F 33.5 °F 21.2 °F 45% 29.71 in 10.0 mi NW 13.8 mph - N/A   Clear
9:55 AM 44.6 °F 37.8 °F 21.2 °F 39% 29.71 in 10.0 mi NNW 15.0 mph 21.9 mph N/A   Clear
10:15 AM 44.6 °F 37.4 °F 21.2 °F 39% 29.72 in 10.0 mi NW 16.1 mph 21.9 mph N/A   Clear
10:35 AM 44.6 °F 37.4 °F 21.2 °F 39% 29.73 in 10.0 mi NW 16.1 mph 24.2 mph N/A   Clear
10:55 AM 46.4 °F 39.2 °F 21.2 °F 37% 29.75 in 10.0 mi NW 18.4 mph - N/A   Clear
11:15 AM 46.4 °F 40.1 °F 21.2 °F 37% 29.75 in 10.0 mi NW 15.0 mph 21.9 mph N/A   Clear
11:35 AM 48.2 °F - 21.2 °F 34% 29.77 in 10.0 mi WNW 18.4 mph 24.2 mph N/A   Clear
11:55 AM 50.0 °F - 19.4 °F 30% 29.76 in 10.0 mi WNW 21.9 mph 27.6 mph N/A   Clear
12:15 PM 48.2 °F - 17.6 °F 30% 29.77 in 10.0 mi WNW 26.5 mph - N/A   Clear
12:35 PM 48.2 °F - 17.6 °F 30% 29.76 in 10.0 mi NW 23.0 mph 28.8 mph N/A   Clear
12:55 PM 50.0 °F - 15.8 °F 26% 29.77 in 10.0 mi NW 26.5 mph 34.5 mph N/A   Scattered Clouds
1:15 PM 46.4 °F 37.7 °F 15.8 °F 29% 29.78 in 10.0 mi NW 26.5 mph 32.2 mph N/A   Scattered Clouds
1:35 PM 48.2 °F - 10.4 °F 22% 29.78 in - WNW 21.9 mph 31.1 mph 0.03 in   Mostly Cloudy
2:15 PM 48.2 °F - 17.6 °F 30% 29.79 in 10.0 mi WNW 25.3 mph 32.2 mph N/A   Clear
2:35 PM 46.4 °F 39.2 °F 15.8 °F 29% 29.80 in 10.0 mi NW 18.4 mph 32.2 mph N/A   Clear
2:55 PM 46.4 °F 37.9 °F 15.8 °F 29% 29.81 in 10.0 mi NW 25.3 mph 31.1 mph N/A   Clear
3:15 PM 46.4 °F 38.5 °F 15.8 °F 29% 29.82 in 10.0 mi NW 21.9 mph 26.5 mph N/A   Clear
3:35 PM 46.4 °F 38.7 °F 15.8 °F 29% 29.83 in 10.0 mi WNW 20.7 mph 31.1 mph N/A   Clear
3:55 PM 44.6 °F 35.7 °F 17.6 °F 34% 29.84 in 10.0 mi NW 24.2 mph 31.1 mph N/A   Clear
4:15 PM 44.6 °F 35.7 °F 15.8 °F 31% 29.85 in 10.0 mi NW 24.2 mph 32.2 mph N/A   Scattered Clouds
4:35 PM 42.8 °F 33.8 °F 14.0 °F 31% 29.86 in 10.0 mi NW 21.9 mph 28.8 mph N/A   Scattered Clouds
4:55 PM 41.0 °F 31.6 °F 12.2 °F 31% 29.87 in 10.0 mi NW 20.7 mph 27.6 mph N/A   Clear
5:15 PM 39.2 °F 30.5 °F 10.4 °F 31% 29.88 in 10.0 mi NW 16.1 mph - N/A   Clear
5:35 PM 37.4 °F 28.2 °F 10.4 °F 33% 29.89 in 10.0 mi NW 16.1 mph 23.0 mph N/A   Clear
5:55 PM 37.4 °F 28.9 °F 10.4 °F 33% 29.90 in 10.0 mi NW 13.8 mph - N/A   Clear
6:15 PM 35.6 °F 28.6 °F 10.4 °F 35% 29.91 in 10.0 mi NW 9.2 mph - N/A   Clear
6:35 PM 33.8 °F 26.4 °F 12.2 °F 41% 29.93 in 10.0 mi NW 9.2 mph - N/A   Clear
6:55 PM 32.0 °F 24.8 °F 10.4 °F 41% 29.94 in 10.0 mi NW 8.1 mph - N/A   Clear
7:35 PM 28.4 °F 21.2 °F 12.2 °F 51% 29.95 in 10.0 mi WNW 6.9 mph - N/A   Clear
7:55 PM 26.6 °F 20.0 °F 10.4 °F 51% 29.96 in 10.0 mi WNW 5.8 mph - N/A   Clear
8:15 PM 26.6 °F 20.0 °F 10.4 °F 51% 29.96 in 10.0 mi WNW 5.8 mph - N/A   Clear
8:35 PM 24.8 °F 16.9 °F 10.4 °F 54% 29.97 in 10.0 mi WNW 6.9 mph - N/A   Clear
8:55 PM 24.8 °F 17.9 °F 10.4 °F 54% 29.97 in 10.0 mi WNW 5.8 mph - N/A   Clear
9:15 PM 26.6 °F 20.0 °F 10.4 °F 51% 29.97 in 10.0 mi WNW 5.8 mph - N/A   Clear
9:35 PM 24.8 °F 16.9 °F 10.4 °F 54% 29.98 in 10.0 mi WNW 6.9 mph - N/A   Clear
9:55 PM 24.8 °F 16.9 °F 10.4 °F 54% 29.99 in 10.0 mi NW 6.9 mph - N/A   Clear
10:15 PM 26.6 °F 21.2 °F 10.4 °F 51% 29.99 in 10.0 mi NW 4.6 mph - N/A   Clear
10:35 PM 26.6 °F 22.6 °F 10.4 °F 51% 29.99 in 10.0 mi West 3.5 mph - N/A   Clear
10:55 PM 21.2 °F 14.9 °F 8.6 °F 58% 29.99 in 10.0 mi West 4.6 mph - N/A   Clear
11:15 PM 21.2 °F 16.4 °F 8.6 °F 58% 30.01 in 7.0 mi West 3.5 mph - N/A   Clear
11:35 PM 21.2 °F 16.4 °F 10.4 °F 63% 30.01 in 10.0 mi West 3.5 mph - N/A   Clear
11:55 PM 21.2 °F 14.9 °F 10.4 °F 63% 30.01 in 10.0 mi WSW 4.6 mph - N/A   Clear